sat.trackr.live / text

‹ back to catalog

STARLINK-34828

NORAD 65353 · 2025-190C

PAYLOAD ACTIVE UNKNOWN

§ Identity

Operator
Country
US
Launch date
2025-08-28
Launch site
AFETR
Launch vehicle
Mass (kg)
RCS (m²)

Purposes: comms

External: N2YO · Heavens-Above · Gunter

§ Orbital elements

Epoch: 2026-09-20T21:50:24.126144Z

Period
93.85 min
Inclination
53.1607°
Eccentricity
0.0000962
Mean motion
15.34371771 rev/d
Perigee alt
462.1 km
Apogee alt
463.4 km
Semi-major
6,840.9 km
B*
9.4396e-4
RAAN
340.0325°
Arg perigee
70.5923°
Mean anomaly
289.5183°
Rev number
5,966

§ Raw data

STARLINK-348281 65353U 25190C   26263.91000146  .00031623  00000+0  94396-3 0  99972 65353  53.1607 340.0325 0000962  70.5923 289.5183 15.34371771 59667

JSON: /api/v1/satellites/65353 · /tle

For live sub-satellite position, see the globe view (requires WebGL).

§ Visibility from observer

Set your observer location to see the next 7 days of passes ≥ 10°. The values pass through the URL so the page stays shareable.

No JS? Fill the form by hand. The geolocation button needs JavaScript.